[[{"header":{"parameterUnit":"m.s-1","parameterCategory":1,"la1":30.2991,"la2":30.254,"lo1":-89.0895,"lo2":-89.0444,"dy":0.0017,"dx":0.0017,"nx":28,"ny":28,"refTime":"2024-03-26T03:00:00:Z","depth":0,"parameterNumber":2,"parameterNumberName":"U-component_of_WINDS"},"data":[0,0,0,0,0,0,0,0,0,0,0,0,0,0,0,0,0,0,0,0,0,0,0,0,0,0,0,0,0,0,0,0,0,0,0,0,0,0,0,0,0,0,0,0,0,0,0,0,0,0,0,0,0,0,0,0,0,0,0.9067,0.9067,0,0.9079,0.9079,0.9079,0.9105,0.9106,0.9106,0.9107,0.9118,0.9117,0.9117,0,0,0,0,0,0,0,0,0,0,0,0,0,0.9067,0.9066,0.9067,0.9067,0.9067,0.9079,0.9079,0.9079,0.9105,0.9106,0.9106,0.9107,0.9118,0.9117,0.9117,0,0,0,0,0,0,0,0,0,0,0,0,0,0.9071,0.9066,0.9067,0.9082,0.9083,0.9079,0.9079,0.9079,0.9105,0.9106,0.9107,0.9107,0.9118,0.9117,0.9117,0.9099,0,0,0.9116,0.9116,0,0,0,0,0,0,0,0,0.9071,0.9071,0.9079,0.9081,0.9082,0.9091,0.9083,0.9086,0.9105,0.9097,0.9107,0.9108,0.9108,0.9109,0.9109,0.91,0.91,0.9116,0.9116,0.9116,0.9116,0,0,0,0,0,0,0,0.9071,0.9071,0.9072,0.9079,0.9081,0.9088,0.9089,0.9084,0.9098,0.9097,0.9099,0.91,0.9109,0.9109,0.911,0.91,0.9116,0.9116,0.9116,0.9116,0.9078,0.9077,0,0,0,0,0,0,0.9068,0.907,0.9071,0.9072,0.9079,0.9087,0.9089,0.9088,0.9098,0.91,0.91,0.9102,0.9109,0.911,0.911,0.909,0.9116,0.9115,0.9115,0.9079,0.9078,0.9077,0,0,0,0,0,0,0.9068,0.9068,0.9071,0.9072,0.9073,0.9086,0.9085,0.9087,0.9088,0.91,0.9102,0.9097,0.911,0.911,0.9102,0.9091,0.9115,0.9115,0.908,0.9078,0.9077,0.905,0,0,0,0,0,0,0.9068,0.9068,0.9061,0.9071,0.9072,0.9062,0.9084,0.9087,0.9087,0.909,0.9098,0.91,0.9111,0.9102,0.9102,0.9091,0.9115,0.9081,0.9079,0.9078,0.9052,0.9048,0.9044,0,0,0,0,0,0.9068,0.9052,0.906,0.906,0.9064,0.9062,0.9062,0.9075,0.9086,0.908,0.9088,0.91,0.9092,0.9101,0.9101,0.909,0.9081,0.908,0.9078,0.9053,0.9048,0.9044,0,0,0,0,0,0,0.9039,0.9054,0.9063,0.905,0.9055,0.9066,0.9058,0.9069,0.907,0.9072,0.9088,0.909,0.9079,0.9084,0.9093,0.9073,0.9089,0.9087,0.9071,0.9066,0.9062,0.9061,0.9115,0,0,0,0,0,0.9031,0.9028,0.9041,0.9028,0.903,0.9044,0.9043,0.9053,0.9058,0.906,0.9067,0.9071,0.907,0.9068,0.9068,0.9053,0.9055,0.9045,0.9042,0.9039,0.9036,0.903,0.9025,0.9071,0.9071,0.9071,0,0,0.9014,0.9022,0.9019,0.9023,0.9027,0.9024,0.9045,0.904,0.9038,0.9059,0.9051,0.9057,0.9063,0.9051,0.9047,0.9055,0.9025,0.9036,0.9034,0.9033,0.9027,0.9023,0.9019,0.907,0.907,0.907,0,0,0.8983,0.8988,0.8979,0.8983,0.8991,0.9,0.8998,0.9008,0.9013,0.9006,0.9022,0.902,0.9017,0.9021,0.9022,0.8994,0.9006,0.8994,0.8974,0.8967,0.8964,0.8961,0.8951,0.8947,0.8992,0.8992,0.8992,0,0.8961,0.8957,0.8972,0.8967,0.8968,0.8989,0.8979,0.8983,0.8989,0.899,0.8999,0.8997,0.9002,0.8992,0.8986,0.8987,0.8985,0.8992,0.8963,0.896,0.8958,0.8948,0.8944,0.899,0.899,0.899,0.8991,0,0.893,0.8927,0.8918,0.8925,0.8926,0.8918,0.8933,0.8932,0.8942,0.8951,0.8944,0.8952,0.8953,0.8952,0.8961,0.8944,0.8949,0.896,0.8976,0.8951,0.8943,0.894,0.8988,0.8988,0.8989,0.8989,0,0,0.8878,0.8895,0.8891,0.8895,0.8906,0.8904,0.8898,0.89,0.8899,0.8904,0.8899,0.8897,0.8909,0.8911,0.8921,0.8916,0.8893,0.8928,0.8929,0.8921,0.8875,0.8865,0.8861,0.8902,0.8901,0.8901,0.8874,0,0.8848,0.8839,0.8854,0.8841,0.8839,0.8859,0.8854,0.886,0.8869,0.8868,0.8877,0.8876,0.8891,0.8893,0.8888,0.8897,0.8884,0.8899,0.8897,0.8897,0.8894,0.8856,0.8846,0.882,0.8871,0.887,0.887,0,0.8811,0.8815,0.8802,0.8815,0.8814,0.881,0.8814,0.8813,0.8821,0.8828,0.8831,0.8844,0.8839,0.8856,0.885,0.886,0.886,0.8865,0.8864,0.8864,0.8881,0.8854,0.8813,0.8808,0.8865,0.8865,0.8866,0,0.8774,0.8776,0.8769,0.8772,0.8786,0.8783,0.8789,0.8797,0.8798,0.8802,0.8803,0.8807,0.8808,0.881,0.8824,0.8835,0.8817,0.8834,0.8822,0.8821,0.8816,0.8816,0.8773,0.8817,0.8818,0.8818,0.8818,0,0.8739,0.873,0.8753,0.8748,0.874,0.8758,0.8749,0.8757,0.8765,0.8762,0.8781,0.8778,0.8797,0.8796,0.8807,0.8801,0.8802,0.8807,0.881,0.8805,0.8804,0.8804,0.8806,0.8817,0.8817,0.8817,0.8817,0,0.8695,0.871,0.8704,0.8719,0.8723,0.8716,0.8729,0.8726,0.8736,0.8733,0.8733,0.875,0.875,0.8765,0.8768,0.8776,0.8765,0.8771,0.8762,0.8764,0.8751,0.8751,0.8706,0.8701,0.8749,0.8748,0.8748,0,0.8671,0.8665,0.868,0.868,0.8686,0.8686,0.8687,0.8705,0.8706,0.8716,0.8711,0.8714,0.8717,0.8717,0.8729,0.8732,0.8738,0.8722,0.8738,0.8734,0.8737,0.8737,0.8737,0.8718,0.8717,0.8717,0.8716,0,0.8627,0.8635,0.8637,0.8642,0.8644,0.8648,0.8654,0.8653,0.8673,0.8673,0.8675,0.8677,0.8682,0.8684,0.8689,0.8696,0.8709,0.8712,0.8709,0.8703,0.8698,0.87,0.8752,0.8712,0.8712,0.8713,0.8713,0.8713,0.8592,0.8588,0.8598,0.86,0.8607,0.8612,0.861,0.8621,0.8623,0.8628,0.8639,0.8639,0.8649,0.8658,0.8663,0.8663,0.8671,0.8667,0.8666,0.8665,0.8662,0.8699,0.8664,0.8665,0.8665,0.8665,0.8665,0,0.8548,0.8556,0.8558,0.8566,0.8568,0.8582,0.859,0.859,0.859,0.8598,0.8601,0.8603,0.8606,0.8619,0.8623,0.8621,0.8627,0.8621,0.8621,0.8623,0.8655,0.8656,0.8616,0.8616,0.8616,0.8616,0.8616,0.8616,0.8525,0.852,0.853,0.8528,0.8536,0.8537,0.854,0.8545,0.8552,0.8554,0.8556,0.8565,0.8576,0.8581,0.8584,0.8588,0.8589,0.858,0.8586,0.8616,0.862,0.8625,0.8626,0.8581,0.8581,0.8554,0.8554,0.8554]},{"header":{"parameterUnit":"m.s-1","parameterCategory":1,"la1":30.2991,"la2":30.254,"lo1":-89.0895,"lo2":-89.0444,"dy":0.0017,"dx":0.0017,"nx":28,"ny":28,"refTime":"2024-03-26T03:00:00:Z","depth":0,"parameterNumber":3,"parameterNumberName":"V-component_of_WINDS"},"data":[0,0,0,0,0,0,0,0,0,0,0,0,0,0,0,0,0,0,0,0,0,0,0,0,0,0,0,0,0,0,0,0,0,0,0,0,0,0,0,0,0,0,0,0,0,0,0,0,0,0,0,0,0,0,0,0,0,0,-3.6369,-3.6369,0,-3.6375,-3.6375,-3.6375,-3.6399,-3.6399,-3.64,-3.64,-3.6402,-3.6401,-3.6401,0,0,0,0,0,0,0,0,0,0,0,0,0,-3.6377,-3.6377,-3.6369,-3.6369,-3.6369,-3.6375,-3.6375,-3.6375,-3.6399,-3.6399,-3.64,-3.6401,-3.6402,-3.6401,-3.6401,0,0,0,0,0,0,0,0,0,0,0,0,0,-3.6377,-3.6377,-3.6369,-3.6382,-3.6383,-3.6375,-3.6375,-3.6375,-3.6399,-3.6399,-3.64,-3.6401,-3.6402,-3.6401,-3.6401,-3.6379,0,0,-3.6398,-3.6398,0,0,0,0,0,0,0,0,-3.6377,-3.6377,-3.638,-3.6381,-3.6382,-3.6387,-3.6378,-3.6376,-3.6398,-3.6392,-3.64,-3.6401,-3.6396,-3.6396,-3.6395,-3.6379,-3.6379,-3.6398,-3.6398,-3.6398,-3.6397,0,0,0,0,0,0,0,-3.6377,-3.6377,-3.6371,-3.638,-3.6381,-3.6387,-3.6388,-3.6378,-3.6389,-3.6393,-3.6395,-3.6395,-3.6397,-3.6395,-3.6395,-3.6379,-3.6398,-3.6398,-3.6397,-3.6397,-3.635,-3.6349,0,0,0,0,0,0,-3.6376,-3.6377,-3.6371,-3.6371,-3.6382,-3.6386,-3.6387,-3.6385,-3.6389,-3.6391,-3.6395,-3.6397,-3.6396,-3.6396,-3.6395,-3.6373,-3.6398,-3.6397,-3.6396,-3.6351,-3.635,-3.6349,0,0,0,0,0,0,-3.6376,-3.6375,-3.6371,-3.6375,-3.6375,-3.6385,-3.6382,-3.6384,-3.6383,-3.6391,-3.6393,-3.6391,-3.6397,-3.6396,-3.6384,-3.6373,-3.6397,-3.6396,-3.6352,-3.635,-3.6349,-3.6326,0,0,0,0,0,0,-3.6376,-3.6375,-3.6367,-3.6374,-3.6374,-3.636,-3.6381,-3.6384,-3.6382,-3.6385,-3.6388,-3.6389,-3.6398,-3.6385,-3.6383,-3.6372,-3.6395,-3.6353,-3.6351,-3.635,-3.6327,-3.6324,-3.6321,0,0,0,0,0,-3.6376,-3.6358,-3.6366,-3.6365,-3.6364,-3.6359,-3.6359,-3.637,-3.6381,-3.6373,-3.6379,-3.6389,-3.6375,-3.6384,-3.6382,-3.637,-3.6353,-3.6352,-3.635,-3.6329,-3.6325,-3.6321,0,0,0,0,0,0,-3.6346,-3.6359,-3.6368,-3.6352,-3.6355,-3.6363,-3.6353,-3.6364,-3.6362,-3.6364,-3.6377,-3.6377,-3.6364,-3.6366,-3.6376,-3.6352,-3.6366,-3.6364,-3.6351,-3.6347,-3.6343,-3.6343,-3.6395,0,0,0,0,0,-3.6339,-3.6334,-3.6345,-3.633,-3.6331,-3.6342,-3.634,-3.6349,-3.6351,-3.6352,-3.6356,-3.6357,-3.6353,-3.635,-3.6346,-3.6328,-3.633,-3.632,-3.6316,-3.6313,-3.6311,-3.6305,-3.6301,-3.6343,-3.6343,-3.6343,0,0,-3.6321,-3.6327,-3.6323,-3.6324,-3.6327,-3.6322,-3.6342,-3.6335,-3.6332,-3.635,-3.634,-3.6344,-3.6346,-3.6332,-3.6325,-3.6333,-3.6301,-3.6311,-3.6309,-3.6308,-3.6303,-3.6299,-3.6295,-3.6342,-3.6342,-3.6342,0,0,-3.6287,-3.6291,-3.628,-3.6284,-3.6289,-3.6297,-3.6295,-3.6303,-3.6307,-3.6297,-3.6312,-3.6308,-3.63,-3.6302,-3.6302,-3.6273,-3.6283,-3.6271,-3.6253,-3.6247,-3.6244,-3.6241,-3.6233,-3.6229,-3.6269,-3.6269,-3.6269,0,-3.6264,-3.6258,-3.6273,-3.6266,-3.6267,-3.6286,-3.6276,-3.6278,-3.6281,-3.6281,-3.629,-3.6283,-3.6286,-3.6274,-3.6267,-3.6266,-3.6264,-3.6271,-3.6243,-3.6241,-3.6238,-3.623,-3.6227,-3.6268,-3.6268,-3.6268,-3.6268,0,-3.6231,-3.6227,-3.6217,-3.6223,-3.6223,-3.6214,-3.6228,-3.6226,-3.6236,-3.6243,-3.6235,-3.6239,-3.6238,-3.6236,-3.6244,-3.6226,-3.6231,-3.6241,-3.6256,-3.6233,-3.6226,-3.6223,-3.6266,-3.6266,-3.6267,-3.6267,0,0,-3.6175,-3.6193,-3.6189,-3.6194,-3.6203,-3.62,-3.6193,-3.6195,-3.6194,-3.6196,-3.6191,-3.6186,-3.6198,-3.6197,-3.6206,-3.62,-3.6181,-3.6212,-3.6212,-3.6207,-3.6164,-3.6157,-3.6153,-3.6188,-3.6187,-3.6187,-3.6164,0,-3.6144,-3.6135,-3.615,-3.6137,-3.6135,-3.6155,-3.615,-3.6155,-3.6163,-3.6162,-3.617,-3.6167,-3.618,-3.6181,-3.6176,-3.6184,-3.6172,-3.6186,-3.6184,-3.6184,-3.6184,-3.6149,-3.6141,-3.6119,-3.6161,-3.6161,-3.6161,0,-3.6106,-3.611,-3.6098,-3.6112,-3.6112,-3.6107,-3.6112,-3.611,-3.6117,-3.6123,-3.6126,-3.6138,-3.6133,-3.6147,-3.6141,-3.615,-3.6151,-3.6155,-3.6154,-3.6155,-3.6171,-3.6149,-3.6112,-3.6109,-3.6156,-3.6156,-3.6157,0,-3.6069,-3.6072,-3.6066,-3.6069,-3.6084,-3.6081,-3.6087,-3.6095,-3.6096,-3.61,-3.6101,-3.6103,-3.6105,-3.6106,-3.6119,-3.6128,-3.6112,-3.6127,-3.6117,-3.6117,-3.6113,-3.6113,-3.6076,-3.6112,-3.6112,-3.6112,-3.6112,0,-3.6034,-3.6026,-3.605,-3.6046,-3.6039,-3.6057,-3.6049,-3.6057,-3.6065,-3.6063,-3.608,-3.6078,-3.6094,-3.6094,-3.6104,-3.6099,-3.6099,-3.6104,-3.6107,-3.6103,-3.6103,-3.6103,-3.6106,-3.6111,-3.6111,-3.6111,-3.6111,0,-3.5991,-3.6007,-3.6002,-3.6019,-3.6023,-3.6017,-3.6031,-3.6028,-3.6039,-3.6037,-3.6037,-3.6053,-3.6054,-3.6067,-3.607,-3.6077,-3.6068,-3.6073,-3.6067,-3.6069,-3.6059,-3.606,-3.6021,-3.6018,-3.6055,-3.6055,-3.6054,0,-3.5967,-3.5962,-3.598,-3.5981,-3.5987,-3.5989,-3.5991,-3.6009,-3.6011,-3.6022,-3.6018,-3.6021,-3.6025,-3.6026,-3.6037,-3.6041,-3.6047,-3.6033,-3.6047,-3.6044,-3.6048,-3.6049,-3.6049,-3.603,-3.6029,-3.6029,-3.6028,0,-3.5924,-3.5933,-3.5937,-3.5945,-3.5949,-3.5955,-3.5962,-3.5962,-3.5982,-3.5983,-3.5986,-3.599,-3.5995,-3.5999,-3.6005,-3.6011,-3.6023,-3.6024,-3.6023,-3.6019,-3.6016,-3.6019,-3.606,-3.6025,-3.6025,-3.6026,-3.6026,-3.6026,-3.5891,-3.5889,-3.5902,-3.5907,-3.5915,-3.5923,-3.5923,-3.5934,-3.5938,-3.5945,-3.5956,-3.5958,-3.5968,-3.5978,-3.5983,-3.5985,-3.5992,-3.5989,-3.5989,-3.5988,-3.5987,-3.6016,-3.5986,-3.5986,-3.5986,-3.5987,-3.5987,0,-3.585,-3.5861,-3.5865,-3.5877,-3.5881,-3.5896,-3.5905,-3.5908,-3.591,-3.5919,-3.5924,-3.5929,-3.5933,-3.5947,-3.5952,-3.5952,-3.5958,-3.5953,-3.5953,-3.5955,-3.5979,-3.5981,-3.5948,-3.5948,-3.5948,-3.5948,-3.5948,-3.5948,-3.583,-3.5828,-3.584,-3.5843,-3.5854,-3.5858,-3.5863,-3.587,-3.5878,-3.5884,-3.5889,-3.5898,-3.5909,-3.5917,-3.5922,-3.5926,-3.5928,-3.5921,-3.5927,-3.5949,-3.5953,-3.5956,-3.5958,-3.5921,-3.5921,-3.5903,-3.5902,-3.5902]}]]